Regional Weather Roundup
Issued by NWS

Home | Current Version | Previous Version | Graphics & Text | Print | Product List | Glossary On
Versions: 1 2 3 4 5 6 7 8 9 10 11 12 13 14 15 16 17 18 19 20 21 22 23 24 25 26
524
ASUS43 KDMX 211607
RWRIA

WEATHER ROUNDUP FOR IOWA
NATIONAL WEATHER SERVICE DES MOINES IA
1100 AM CDT THU MAY 21 2015

NOTE: "FAIR" INDICATES FEW OR NO CLOUDS BELOW 12,000 FEET WITH NO
SIGNIFICANT WEATHER AND/OR OBSTRUCTIONS TO VISIBILITY.

* - THESE STATIONS ARE NOT NWS STATIONS...THUS NOT UNDER NWS
QUALITY CONTROL.  THEY ALSO DO NOT REPORT WEATHER SUCH
AS PRECIPITATION OR FOG.

IAZ001>003-012>014-020>022-031>034-043>046-211700-
   NORTHWEST IOWA

CITY           SKY/WX    TMP DP  RH WIND       PRES   REMARKS
CARROLL *      SUNNY     64  41  42 NW17G24   30.17F
CHEROKEE *     SUNNY     61  46  59 NW10      30.19S
DENISON *      SUNNY     63  41  45 NW13      30.18F
LE MARS *      SUNNY     63  45  51 W14G21    30.21F
ORANGE CITY *  SUNNY     61  45  55 NW17      30.18F
SHELDON *      SUNNY     64  39  39 NW15G23   30.16S
SIOUX CITY     SUNNY     65  42  43 NW13      30.21F
SPENCER        SUNNY     65  40  39 W18G28    30.15S
STORM LAKE *   SUNNY     61  45  55 W18G24    30.18F
$$

IAZ055>058-069>071-079>083-090>094-211700-
   SOUTHWEST IOWA

CITY           SKY/WX    TMP DP  RH WIND       PRES   REMARKS
ATLANTIC *     SUNNY     61  43  51 W13       30.21F
AUDUBON *      SUNNY     63  43  48 NW10G16   30.21S
CLARINDA *     SUNNY     59  46  63 W9        30.26F
COUNCIL BLFS * SUNNY     59  46  63 NW10      30.24F
CRESTON *      SUNNY     59  46  63 W14       30.21F
HARLAN  *      SUNNY     61  46  59 NW13G21   30.25S
LAMONI         SUNNY     60  46  59 W10       30.22F
RED OAK *      SUNNY     61  46  59 W9        30.24F
SHENANDOAH *   SUNNY     59  46  63 VRB5      30.26F
$$

IAZ047>049-059>061-072>074-084-211700-
   CENTRAL IOWA

CITY           SKY/WX    TMP DP  RH WIND       PRES   REMARKS
AMES           SUNNY     62  44  51 W14       30.15F
ANKENY *       SUNNY     61  45  55 W12       30.16F
CHARITON *     SUNNY     59  46  63 W10G16    30.18F
DES MOINES     MOSUNNY   63  43  48 W14       30.17F
GRINNELL*      SUNNY     59  45  58 W13       30.16S
KNOXVILLE *    SUNNY     59  43  55 W13       30.16F
MARSHALLTOWN   SUNNY     59  46  62 W12       30.13F
PELLA *        SUNNY     59  48  67 W10G17    30.18S
PERRY *          N/A     63  43  48 NW14G20   30.16F
$$

IAZ004>006-015-016-023>025-035-036-211700-
   NORTH CENTRAL IOWA

CITY           SKY/WX    TMP DP  RH WIND       PRES   REMARKS
ALGONA *       SUNNY     66  41  39 NW15G21   30.12F
CLARION *      SUNNY     61  48  63 NW15      30.13S
ESTHERVILLE    SUNNY     68  34  28 NW24G31   30.11F
FORT DODGE *   SUNNY     61  46  59 W12       30.16S
MASON CITY     SUNNY     64  42  44 W12       30.10F
FOREST CITY *  SUNNY     61  41  48 W14       30.10F
IOWA FALLS *     N/A     61  45  55 W14       30.14S
$$

IAZ007>011-017>019-026>030-037>042-050>054-066-211700-
   NORTHEAST IOWA

CITY           SKY/WX    TMP DP  RH WIND       PRES   REMARKS
CEDAR RAPIDS   SUNNY     58  46  64 W8        30.13F
CHARLES CITY * SUNNY     61  41  48 W8G16     30.10F
CLINTON *      SUNNY     59  43  55 W15       30.15F
DECORAH *      SUNNY     61  43  51 VRB6G12   30.07S
DUBUQUE        SUNNY     57  46  66 W12       30.11F
MONTICELLO *   SUNNY     57  48  72 W10G16    30.12S
OELWEIN *      SUNNY     57  48  72 SW7G14    30.11F
WATERLOO       SUNNY     59  46  62 W12       30.11F
$$

IAZ064-065-067-068-078-211700-
   EAST CENTRAL IOWA

CITY           SKY/WX    TMP DP  RH WIND       PRES   REMARKS
DAVENPORT      SUNNY     59  42  53 W13       30.14F
IOWA CITY      SUNNY     59  44  57 SW9       30.15F
MT. PLEASANT * SUNNY     57  43  58 SW10G16   30.18S
MUSCATINE *    SUNNY     59  43  55 W12G18    30.16F
QUAD CITIES    SUNNY     60  40  47 W13       30.13F
$$

IAZ062-063-075>077-085>089-095>099-211700-
   SOUTHEAST IOWA

CITY           SKY/WX    TMP DP  RH WIND       PRES   REMARKS
BURLINGTON     SUNNY     58  40  51 W9        30.17F
FAIRFIELD *    SUNNY     57  43  58 W10G20    30.17F
FORT MADISON *   N/A     57  43  58 W9        30.19F
KEOKUK *       SUNNY     57  41  54 W13       30.19F
OSKALOOSA *      N/A     59  43  55 W13       30.17F
CENTERVILLE *  SUNNY     59  59 100 W13       30.21F
OTTUMWA        SUNNY     60  45  57 W12       30.17F
WASHINGTON *   SUNNY     59  41  51 W13       30.17S
$$

ABBREVIATIONS USED IN REMARKS
   TC - TEMPERATURES IN CELSIUS
  WCI - WIND CHILL INDEX
   HX - HEAT INDEX
  VSB - VISIBILITY
$$




USA.gov is the U.S. government's official web portal to all federal, state and local government web resources and services.